TimeCDT,TemperatureF,Dew PointF,Humidity,Sea Level PressureIn,VisibilityMPH,Wind Direction,Wind SpeedMPH,Gust SpeedMPH,PrecipitationIn,Events,Conditions,WindDirDegrees,DateUTC
12:14 AM,30.2,26.6,86,30.04,2.5,NE,15.0,-,0.01,Rain,Light Freezing Rain,50,2013-03-17 05:14:00
12:24 AM,30.2,26.6,86,30.04,3.0,NE,15.0,-,0.02,Rain,Light Freezing Rain,40,2013-03-17 05:24:00
12:38 AM,30.2,28.4,93,30.04,2.5,NE,16.1,-,0.04,Rain,Light Freezing Rain,40,2013-03-17 05:38:00
12:55 AM,30.9,28.0,89,30.07,2.5,NE,12.7,21.9,0.08,Rain,Light Freezing Rain,50,2013-03-17 05:55:00
1:06 AM,30.2,26.6,86,30.04,2.0,NE,11.5,-,0.02,Rain,Light Freezing Rain,50,2013-03-17 06:06:00
1:20 AM,30.2,26.6,86,30.04,3.0,ENE,13.8,-,0.04,Rain,Light Freezing Rain,60,2013-03-17 06:20:00
1:55 AM,30.0,26.1,85,30.06,4.0,ENE,16.1,21.9,0.05,Rain,Light Freezing Rain,60,2013-03-17 06:55:00
2:41 AM,30.2,26.6,86,30.02,6.0,ENE,10.4,-,0.01,,Overcast,70,2013-03-17 07:41:00
2:55 AM,30.0,26.1,85,30.05,6.0,East,17.3,21.9,0.01,,Overcast,90,2013-03-17 07:55:00
3:42 AM,28.4,24.8,86,29.99,7.0,East,11.5,-,0.00,,Mostly Cloudy,80,2013-03-17 08:42:00
3:55 AM,28.9,26.1,89,30.03,7.0,East,10.4,-,0.00,,Overcast,80,2013-03-17 08:55:00
4:18 AM,28.4,26.6,93,29.98,7.0,East,9.2,-,N/A,,Overcast,90,2013-03-17 09:18:00
4:55 AM,28.9,25.0,85,30.02,7.0,East,9.2,-,N/A,,Overcast,80,2013-03-17 09:55:00
5:55 AM,28.0,25.0,88,30.03,5.0,East,8.1,-,N/A,,Overcast,80,2013-03-17 10:55:00
6:55 AM,28.0,25.0,88,30.05,7.0,East,5.8,-,N/A,,Overcast,100,2013-03-17 11:55:00
7:55 AM,28.0,25.0,88,30.04,5.0,ENE,6.9,-,N/A,,Overcast,70,2013-03-17 12:55:00
8:55 AM,28.0,25.0,88,30.05,5.0,ENE,8.1,-,N/A,,Overcast,70,2013-03-17 13:55:00
9:55 AM,28.0,25.0,88,30.03,5.0,ENE,10.4,-,N/A,,Overcast,70,2013-03-17 14:55:00
10:55 AM,28.9,26.1,89,30.01,5.0,East,8.1,-,N/A,,Overcast,80,2013-03-17 15:55:00
11:55 AM,30.0,27.0,88,29.98,4.0,East,12.7,-,N/A,,Overcast,90,2013-03-17 16:55:00
12:15 PM,30.2,26.6,86,29.93,4.0,East,11.5,-,N/A,,Overcast,100,2013-03-17 17:15:00
12:55 PM,30.9,28.0,89,29.94,3.0,ESE,11.5,-,N/A,,Overcast,110,2013-03-17 17:55:00
1:55 PM,32.0,28.9,88,29.92,3.0,ESE,8.1,-,N/A,,Overcast,110,2013-03-17 18:55:00
2:55 PM,33.1,30.0,89,29.86,3.0,East,10.4,-,N/A,,Overcast,100,2013-03-17 19:55:00
3:55 PM,34.0,30.9,89,29.82,3.0,ESE,9.2,-,N/A,,Overcast,120,2013-03-17 20:55:00
4:55 PM,35.1,32.0,89,29.79,3.0,SE,6.9,-,N/A,,Overcast,130,2013-03-17 21:55:00
5:55 PM,36.0,33.1,89,29.75,3.0,ESE,9.2,-,N/A,,Overcast,110,2013-03-17 22:55:00
6:55 PM,36.0,33.1,89,29.73,3.0,ESE,9.2,-,N/A,,Overcast,110,2013-03-17 23:55:00
7:02 PM,35.6,33.8,93,29.71,3.0,ESE,5.8,-,N/A,,Overcast,120,2013-03-18 00:02:00
7:55 PM,37.0,33.1,86,29.74,4.0,ESE,5.8,-,N/A,,Overcast,110,2013-03-18 00:55:00
8:43 PM,35.6,33.8,93,29.74,2.5,SE,9.2,-,N/A,,Overcast,130,2013-03-18 01:43:00
8:51 PM,35.6,33.8,93,29.74,2.5,SE,10.4,-,N/A,,Overcast,130,2013-03-18 01:51:00
8:55 PM,36.0,34.0,93,29.77,2.5,SE,10.4,-,N/A,,Overcast,130,2013-03-18 01:55:00
9:21 PM,35.6,33.8,93,29.74,2.0,ESE,10.4,-,N/A,,Overcast,120,2013-03-18 02:21:00
9:55 PM,35.1,33.1,92,29.76,2.5,ESE,13.8,-,N/A,,Overcast,120,2013-03-18 02:55:00
10:14 PM,35.6,33.8,93,29.75,2.5,SSE,5.8,-,N/A,,Overcast,150,2013-03-18 03:14:00
10:25 PM,35.6,33.8,93,29.76,3.0,SE,5.8,-,N/A,,Overcast,140,2013-03-18 03:25:00
10:38 PM,35.6,33.8,93,29.76,2.5,SSE,4.6,-,N/A,,Overcast,150,2013-03-18 03:38:00
10:55 PM,35.1,33.1,92,29.80,2.0,SE,4.6,-,N/A,,Overcast,130,2013-03-18 03:55:00
11:03 PM,33.8,33.8,100,29.76,1.8,SE,3.5,-,N/A,,Overcast,130,2013-03-18 04:03:00
11:14 PM,33.8,33.8,100,29.77,1.5,SSE,4.6,-,0.00,Rain,Light Rain,150,2013-03-18 04:14:00
11:46 PM,35.6,33.8,93,29.78,1.8,SW,4.6,-,0.01,,Overcast,230,2013-03-18 04:46:00
11:55 PM,35.1,34.0,96,29.81,2.0,Calm,Calm,-,0.01,,Overcast,0,2013-03-18 04:55:00